Valentine, NE

9:46 AM CDT on July 25, 2016 (GMT -0500)
Miller Field

Weather History for KVTN - August, 2014

Change the Weather History Date:

Thursday, August 14, 2014

  Actual Average Record
Temperature  
Mean Temperature 79 °F 74 °F  
Max Temperature 93 °F 88 °F 105 °F (1937)
Min Temperature 64 °F 60 °F 42 °F (1929)
Degree Days  
Heating Degree Days 0 0  
Month to date heating degree days 0 0  
Since 1 June heating degree days 73 69  
Since 1 July heating degree days 19 8  
Cooling Degree Days 14 9  
Month to date cooling degree days 117 134  
Year to date cooling degree days 519 609  
Since 1 June cooling degree days 458 575  
Growing Degree Days 28 (Base 50)    
Moisture  
Dew Point 64 °F    
Average Humidity 63    
Maximum Humidity 87    
Minimum Humidity 39    
Precipitation  
Precipitation 0.07 in 0.08 in 1.23 in (1978)
Month to date precipitation 1.55 1.21  
Year to date precipitation 17.97 15.14  
Snow  
Snow 0.00 in 0.00 in 0.00 in ()
Month to date snowfall 0.0 0.0  
Since 1 June snowfall 0.0 0.0  
Since 1 July snowfall 0.0 0.0  
Snow Depth 0.00 in    
Sea Level Pressure  
Sea Level Pressure 29.88 in    
Wind  
Wind Speed 12 mph (SSE)    
Max Wind Speed 29 mph    
Max Gust Speed 35 mph    
Visibility 10 miles    
Events      
T = Trace of Precipitation, MM = Missing Value Source: NWS Daily Summary

Daily Weather History Graph

Daily Weather History Graph

Search for Another Location

Airport or City:

Trip Planner

Search our weather history database for the weather conditions in past years. The results will help you decide how hot, cold, wet, or windy it might be!

Date:

Astronomy

Aug. 14, 2014 Rise Set
Actual Time 6:47 AM CDT 8:45 PM CDT
Civil Twilight 6:16 AM CDT 9:16 PM CDT
Nautical Twilight 5:39 AM CDT 9:53 PM CDT
Astronomical Twilight 4:58 AM CDT 10:34 PM CDT
Moon 11:01 PM CDT (8/14) 11:34 AM CDT (8/14)
Length of Visible Light 14h 59m
Length of Day
13h 58m
Waning Gibbous, 79% of the Moon is Illuminated
Aug 14
Waning Gibbous
Aug 17
Last Quarter
Aug 25
New
Sep 2
First Quarter
Sep 8
Full

Hourly Weather History & Observations

Time (CDT) Temp. Heat Index Dew Point Humidity Pressure Visibility Wind Dir Wind Speed Gust Speed Precip Events Conditions
12:52 AM 72.0 °F - 63.0 °F 73% 29.96 in 10.0 mi SSE 6.9 mph 16.1 mph N/A   Clear
1:52 AM 70.0 °F - 63.0 °F 78% 29.93 in 10.0 mi South 20.7 mph 31.1 mph 0.07 in   Mostly Cloudy
2:52 AM 71.1 °F - 62.1 °F 73% 29.94 in 10.0 mi North 6.9 mph - N/A   Scattered Clouds
3:52 AM 69.1 °F - 63.0 °F 81% 29.93 in 10.0 mi East 6.9 mph - N/A   Clear
4:52 AM 66.9 °F - 62.1 °F 84% 29.93 in 10.0 mi SSE 6.9 mph - N/A   Clear
5:52 AM 66.0 °F - 62.1 °F 87% 29.92 in 10.0 mi SSE 6.9 mph - N/A   Clear
6:52 AM 64.0 °F - 61.0 °F 90% 29.92 in 10.0 mi SSE 9.2 mph - N/A   Clear
7:52 AM 64.9 °F - 61.0 °F 87% 29.93 in 10.0 mi South 5.8 mph - N/A   Clear
8:52 AM 68.0 °F - 62.1 °F 81% 29.94 in 10.0 mi SSE 4.6 mph - N/A   Clear
9:52 AM 73.9 °F - 63.0 °F 68% 29.92 in 10.0 mi SSE 8.1 mph - N/A   Clear
10:52 AM 78.1 °F - 64.0 °F 62% 29.91 in 10.0 mi SE 12.7 mph - N/A   Clear
11:52 AM 82.0 °F 83.8 °F 64.9 °F 56% 29.89 in 10.0 mi SSE 13.8 mph - N/A   Clear
12:52 PM 84.9 °F 86.6 °F 64.9 °F 51% 29.87 in 10.0 mi South 16.1 mph 21.9 mph N/A   Clear
1:52 PM 89.1 °F 91.0 °F 64.9 °F 45% 29.85 in 10.0 mi SSE 12.7 mph 21.9 mph N/A   Clear
2:52 PM 91.0 °F 92.6 °F 64.0 °F 41% 29.83 in 10.0 mi SSE 16.1 mph 25.3 mph N/A   Clear
3:52 PM 93.2 °F 94.9 °F 64.4 °F 38% 29.89 in 10.0 mi SSE 19.6 mph 27.6 mph N/A   Clear
4:52 PM 90.0 °F 91.3 °F 64.0 °F 42% 29.81 in 10.0 mi SSE 23.0 mph 31.1 mph N/A   Clear
5:52 PM 89.1 °F 91.0 °F 64.9 °F 45% 29.80 in 10.0 mi SSE 20.7 mph - N/A   Clear
6:52 PM 86.0 °F 88.2 °F 66.0 °F 51% 29.82 in 10.0 mi SSE 13.8 mph - N/A   Clear
7:52 PM 82.9 °F 85.4 °F 66.9 °F 58% 29.83 in 10.0 mi SSE 12.7 mph - N/A   Clear
8:52 PM 82.0 °F 84.1 °F 66.0 °F 58% 29.82 in 10.0 mi SSE 16.1 mph 24.2 mph N/A   Clear
9:52 PM 80.1 °F 82.1 °F 66.0 °F 62% 29.85 in 10.0 mi South 12.7 mph 23.0 mph N/A   Clear
10:52 PM 78.1 °F - 66.0 °F 66% 29.85 in 10.0 mi SSE 4.6 mph - N/A   Clear
11:52 PM 75.9 °F - 66.9 °F 74% 29.85 in 10.0 mi SSE 6.9 mph - N/A   Clear